Showing default

ORBCOMM FM 18, 25414

Orbit data source: Space-Track

ORBCOMM FM 18, 25414 is a payload satellite owned by Orbcomm (US) in LEO that was launched on Sun, 02 Aug 1998 UTC via a PEGASUS XL/HAPS launch vehicle from the Pegasus Launch, Eastern Range Air Space (ERAS). Payload-class satellites include a variety of spacecraft equipped with specific instruments for various scientific and technological missions. These include communications satellites like Starlink; space stations such as the ISS; scientific satellites like the Hubble; Earth observation satellites from companies like Planet Labs, Umbra, and HawkEye 360; GPS; miniature CubeSats for education and research; and military/defense satellites.

Loading next visibility...
Identifier
25414, 1998-046B
Orbit
LEO
Country
Flag of USUS / ORB
Related business
Manufacturer
OSC-Germantown
Mission
Non-operational Commercial Communications
Bus & Motor
MICROSTAR, Unknown motor
Mass
42 kg wet, 42 kg dry
Launch date (UTC)
1998-08-02 (27 years ago)
Launch vehicle
PEGASUS XL/HAPS
Launch site
Pegasus Launch, Eastern Range Air Space (ERAS)
Object type
Payload
Rocket body
Debris
Shape & HBR
Cyl + 2 Pan, 4.2 m
Radar Cross Section
1.484 m², Medium (>0.1 m² and < 1m²)

Expand to show TLE details & history
Last TLE update: 12 hours ago

TLE from 12 hours ago
0 ORBCOMM FM 18
1 25414U 98046B   25293.75762357  .00002450  00000-0  83303-3 0  9997
2 25414  44.9917 298.8754 0005451 222.6956 137.3469 14.38928607422337
Epoch: 2025-10-20T18:10Z
TLE epoch observation values (Epoch: 2025-10-20T18:10:58.676Z)
Latitude
-0.00004°
Longitude
-3.32447°
Altitude
764.902 km
Speed
7.472 km/s
True Right ascension
19h 55m 30s
True Declination
0° 00' 00"
Sunlit
Object was in daylight at epoch
Visualization orbit readout
Latitude
Unknown
Longitude
Unknown
Altitude
Unknown
Speed
Unknown
Apparent Right ascension
Unknown
Apparent Declination
Unknown
Sunlit
N/A
Visualization observer readout
Local Sidereal Time
01:06:07
Azimuth
Unknown
Elevation
Unknown
Doppler factor
Unknown
Orbital elements
Apogee altitude
767.481 km
Perigee altitude
759.696 km
Semi-major axis
7,141.726 km
Eccentricity
0.00055
Inclination
44.9917°
RAAN
298.8754°
Arg. of periapsis
222.6956°
True anomaly
137.3892°
Mean anomaly
137.3469°
Eccentric anomaly
137.36805°
Mean motion
3.59616 °/min
Orbital period
100.11 mins
BSTAR
0.00083303
Loading maneuver chart data...
Computing Atmospheric mass density...

Documentation

Showing up to 5 results
|